User: anonymous   Login
Location: Napier
(39.4830°S, 176.9170°E)
Time: 14:31:38
(UTC+13:00)
Language:

Cosmos 1943 Rocket - Orbit

View from above orbital plane
View from above orbital plane
View from above satellite
View from above satellite

Ground track
Ground track

The orbit data is extracted from the following two-line orbital elements,

1 19120U 88039B   20302.61039895  .00000069  00000-0  55815-4 0  9992
2 19120  71.0149 247.1537 0019620 104.6063 255.7239 14.19206289680812
Epoch (UTC): 28 October 2020 14:38:58
Eccentricity: 0.0019620
inclination: 71.0149°
perigee height: 814 km
apogee height: 842 km
right ascension of ascending node: 247.1537°
argument of perigee: 104.6063°
revolutions per day: 14.19206289
mean anomaly at epoch: 255.7239°
orbit number at epoch: 68081

The dashed part of the orbit path shows where the satellite is in the earth's shadow,  

DLR